Find Starlink 30184

NORAD ID: 57310 Int'l Des: 2023-096 Owner: SPXS Country: US Constellation: starlink operational
LEOCIRCULAR

現在のビュー

3D地球を読み込み中...

About Starlink 30184

Starlink 30184 (NORAD 57310) is a starlink constellation satellite (v2 mini) launched Jul 10, 2023 by SPXS of US. It operates in LEO, CIRCULAR orbit with a mass of 730.00 kg.

次回通過

Passes for default location (London). Set your location on the main map for personalized predictions.

高度履歴

Loading altitude history...

軌道要素

1 57310U 23096W 26206.21614988 .00000315 00000-0 20966-4 0 9997
2 57310 43.0030 137.7909 0001193 270.7808 89.2907 15.27577034168089
Epoch: Jul 25, 2026 • Age: 28 hours

現在のステータス

高度 488.6 km
遠地点 / 近地点 N/A
速度 7.62 km/s
衛星直下点 -25.10°S, 18.12°E
打ち上げ日 Jul 10, 2023
運用期間 3 years
タイプ internet

技術仕様

分類 Payload
質量 730.00 kg
乾燥質量 700.00 kg
総質量 730.00 kg
長さ 0.30 m
直径 4.10 m
スパン 29.00 m
形状 Box + pan
製造者 SPXS
バスタイプ Starlink V2M
フェーズステータス In Orbit
所有者/国 SPXS/US

Most Searched